This demonstration page uses our WeatherBlox Daily Observations layout. Learn more.

Left ArrowRight Arrow

34.02893, -84.19858

Hourly Observations for May 28, 2015

Temp ( °F °C ) Dew Point ( °F °C ) Humidity (%) Winds ( mph kmh ) Pressure ( in mb ) Visibility ( mi km ) Precip ( " mm )
12:53 am 00:53 Cloudy with Nearby Thunderstorms 69 20.6 64 17.8 84 84 W 12 19 30.22 1023 10 16 0.01 0.25
1:11 am 01:11 Cloudy with Nearby Thunderstorms 67 19.4 65 18.3 93 93 W 17 28 30.24 1024 2 3 0.06 1.52
1:29 am 01:29 Cloudy with Heavy Rain 66 18.9 65 18.3 96 96 NW 7 11 30.21 1023 2 3 0.24 6.10
1:39 am 01:39 Cloudy with Nearby Thunderstorms 66 18.9 65 18.3 96 96 NW 5 7 30.21 1023 2 3 0.29 7.37
1:53 am 01:53 Cloudy with Nearby Thunderstorms 66 18.9 65 18.3 96 96 Calm 30.19 1023 3 5 0.32 8.13
2:00 am 02:00 Cloudy with Rain 66 19 64 18 94 94 Calm 30.21 1023 3 5 0.00 0.00
2:53 am 02:53 Mostly Cloudy 66 18.9 65 18.3 96 96 VRB 5 7 30.16 1021 10 16 0.08 2.03
3:53 am 03:53 Clear 66 18.9 65 18.3 96 96 Calm 30.13 1020 9 14 0.00 0.00
4:53 am 04:53 Mostly Clear 66 18.9 65 18.3 96 96 WNW 3 6 30.13 1020 10 16 0.00 0.00
5:53 am 05:53 Clear 66 18.9 65 18.3 96 96 Calm 30.13 1020 9 14 0.00 0.00
6:53 am 06:53 Partly Cloudy 66 18.9 64 17.8 93 93 Calm 30.16 1021 8 13 0.00 0.00
7:53 am 07:53 Sunny 66 18.9 65 18.3 96 96 Calm 30.18 1022 8 13 0.00 0.00
8:53 am 08:53 Sunny 68 20 66 18.9 93 93 E 3 6 30.19 1022 9 14 0.00 0.00
9:53 am 09:53 Sunny 72 22.2 65 18.3 79 79 Calm 30.20 1023 10 16 0.00 0.00
10:53 am 10:53 Mostly Sunny 75 23.9 68 20 79 79 VRB 5 7 30.19 1022 9 14 0.00 0.00
11:53 am 11:53 Mostly Cloudy 79 26.1 68 20 69 69 SSW 5 7 30.19 1022 10 16 0.00 0.00
12:53 pm 12:53 Partly Cloudy 80 26.7 66 18.9 62 62 ESE 5 7 30.17 1022 10 16 0.00 0.00
1:53 pm 13:53 Mostly Sunny 80 26.7 65 18.3 60 60 VRB 3 6 30.16 1021 10 16 0.00 0.00
2:53 pm 14:53 Sunny 80 26.7 66 18.9 62 62 SSE 6 9 30.14 1021 10 16 0.00 0.00
3:05 pm 15:05 Sunny with Nearby Thunderstorms 80 26.7 66 18.9 62 62 SE 3 6 30.12 1020 10 16 0.00 0.00
3:22 pm 15:22 Partly Cloudy with Thunderstorms 79 26 66 19 65 65 S 9 15 30.12 1020 10 16 0.00 0.00
3:37 pm 15:37 Mostly Cloudy with Thunderstorms 72 22 68 20 88 88 S 15 24 30.15 1021 2 2 0.00 0.00
3:42 pm 15:42 Cloudy with Strong Thunderstorms 70 21 68 20 94 94 S 12 19 30.15 1021 1 1 0.00 0.00
3:51 pm 15:51 Cloudy with Nearby Thunderstorms 72 22 70 21 94 94 S 5 7 30.15 1021 4 6 0.29 7.37
3:53 pm 15:53 Cloudy with Nearby Thunderstorms 71 21.7 69 20.6 94 94 VRB 5 7 30.15 1021 4 6 0.29 7.37
4:53 pm 16:53 Cloudy with Nearby Thunderstorms 70 21.1 68 20 93 93 Calm 30.16 1021 6 10 0.10 2.54
4:55 pm 16:55 Cloudy with Nearby Thunderstorms 70 21 68 20 94 94 SSW 3 6 30.15 1021 2 3 0.00 0.00
4:57 pm 16:57 Cloudy with Nearby Thunderstorms 70 21.1 68 20 93 93 SW 3 6 30.15 1021 6 10 0.01 0.25
5:24 pm 17:24 Cloudy with Rain 70 21 70 21 100 100 NNE 5 7 30.15 1021 6 10 0.00 0.00
5:53 pm 17:53 Cloudy with Nearby Thunderstorms 70 21.1 69 20.6 97 97 Calm 30.16 1022 6 10 0.13 3.30
6:12 pm 18:12 Mostly Cloudy with Light Rain 70 21 68 20 94 94 undefined N/A 30.15 1021 6 10 0.00 0.00
6:53 pm 18:53 Cloudy with Light Rain 69 20.6 68 20 96 96 E 3 6 30.15 1021 6 10 0.01 0.25
7:04 pm 19:04 Mostly Cloudy 69 20.6 67 19.4 93 93 ENE 3 6 30.15 1021 7 11 0.00 0.03
7:53 pm 19:53 Mostly Cloudy with Light Rain 69 20.6 68 20 96 96 VRB 3 6 30.16 1021 6 10 0.00 0.03
8:53 pm 20:53 Partly Cloudy 69 20.6 67 19.4 93 93 Calm 30.16 1021 7 11 0.01 0.25
9:53 pm 21:53 Partly Cloudy with Mist and Fog 69 20.6 68 20 96 96 Calm 30.17 1022 3 5 0.00 0.00
10:53 pm 22:53 Cloudy 70 21.1 68 20 93 93 Calm 30.18 1022 7 11 0.00 0.00
11:53 pm 23:53 Clear with Mist and Fog 69 20.6 68 20 96 96 Calm 30.17 1022 5 8 0.00 0.00

Powered by AerisWeather